Wind_Speed
27 25 22 19 18 16 14 14 14 13 13 12 11 9 9 9 8 8 9 10 11 12 13 14 16 17 18 19 19 20 20 20 19 19 18 16 15 13 11 9 7 8 9 10
27 23 21 20 17 15 13 13 13 13 12 12 11 9 8 7 6 6 8 10 11 11 12 13 15 16 17 18 19 20 20 21 20 20 19 18 17 15 13 10 8 6 6 7
23 21 21 19 16 14 11 11 12 13 12 11 11 9 6 4 3 5 7 9 10 10 11 13 14 15 16 17 18 19 20 21 21 21 20 19 18 17 15 13 11 9 7 7
23 21 19 17 15 12 10 11 12 12 11 10 10 8 5 2 1 4 6 7 8 9 10 12 13 14 16 17 18 19 20 21 21 21 21 20 20 19 17 16 13 11 9 8
20 19 17 15 13 12 11 11 12 12 11 9 8 6 3 2 2 3 5 6 7 8 9 11 12 13 15 16 17 18 19 20 21 21 21 21 21 20 19 17 16 14 12 10
19 18 16 13 13 12 12 12 12 12 10 9 7 4 4 4 3 3 4 5 6 7 8 9 11 12 14 15 16 18 19 19 20 20 20 20 20 20 19 19 18 16 15 13
18 17 15 13 13 12 12 12 12 12 11 9 7 6 5 5 4 3 3 4 5 5 7 8 9 11 12 14 15 17 18 19 19 19 20 20 20 20 19 19 19 18 16 15
16 15 14 13 12 12 12 11 12 12 12 11 9 7 6 5 4 3 3 3 3 4 5 7 8 10 12 13 15 16 17 18 19 19 19 19 20 20 20 19 19 19 18 17
16 15 13 12 12 11 11 11 10 12 13 12 10 8 6 6 4 3 2 1 2 3 4 6 7 9 11 12 14 15 16 17 18 19 20 20 20 20 20 20 20 19 19 18
13 13 12 12 11 11 10 10 10 11 12 12 10 9 8 7 5 4 2 1 1 2 3 5 7 8 10 12 14 15 16 17 18 19 20 20 20 20 20 20 20 20 20 19
13 13 11 11 11 10 10 10 11 11 12 12 10 9 8 7 6 4 3 2 1 1 2 4 6 8 10 12 14 15 16 17 18 19 20 20 21 20 20 20 21 21 20 20
13 13 13 13 12 11 10 11 11 11 11 11 9 8 8 7 7 6 4 3 1 1 2 4 6 8 10 12 14 15 17 18 19 20 20 20 20 20 20 21 21 21 21 21
14 15 14 13 13 13 12 12 12 12 12 11 10 9 9 8 7 6 4 3 2 2 2 4 6 8 10 12 14 16 17 19 20 20 20 20 20 20 20 21 21 21 21 21
15 16 16 15 14 14 14 14 14 13 13 12 10 8 8 8 7 6 5 4 3 3 4 5 7 9 11 13 15 17 18 19 20 20 20 20 20 20 20 20 20 21 21 21
16 16 17 15 15 14 13 14 14 13 13 12 10 9 9 9 8 7 6 5 5 5 6 7 8 10 12 14 15 17 18 19 20 20 20 20 20 20 20 20 20 20 20 21
16 16 17 16 16 15 13 13 14 14 13 12 12 10 11 10 10 8 7 6 6 7 8 9 10 11 13 14 15 17 18 19 20 20 20 20 20 20 20 20 20 20 20 20
16 17 17 17 18 16 11 13 14 14 13 13 12 11 12 11 10 9 8 8 8 9 9 10 11 12 13 14 15 17 18 19 20 20 21 21 21 21 20 20 20 20 20 20
17 18 18 18 19 16 11 15 15 15 15 14 13 12 12 12 11 10 10 10 10 11 11 12 12 13 13 14 15 17 18 19 20 21 21 21 21 21 21 21 21 21 21 21
18 19 19 20 20 17 14 15 16 17 16 15 15 14 13 13 12 12 12 12 12 13 13 13 13 14 14 15 16 17 18 19 20 21 22 22 23 23 22 22 22 21 21 21
20 20 20 20 21 18 14 17 18 18 16 17 17 16 15 14 14 15 14 14 14 14 15 15 15 15 15 16 17 18 19 20 21 23 23 24 24 24 24 23 23 22 22 21
23 23 22 22 22 19 17 18 19 19 17 19 18 17 16 16 17 17 16 16 16 16 16 16 16 16 16 17 18 19 20 22 23 24 25 26 26 26 25 25 24 23 23 22
24 25 24 24 24 19 20 20 20 19 19 19 19 19 18 18 18 18 18 18 17 17 17 17 17 17 17 19 20 21 22 23 25 26 27 28 28 28 27 27 26 25 24 23
25 25 26 27 25 23 23 22 22 22 21 21 20 20 20 20 20 20 19 19 19 19 18 18 18 18 19 20 21 22 24 25 27 28 29 30 30 30 29 28 27 26 25 23
29 28 28 28 27 26 26 25 24 24 23 23 22 22 21 21 21 21 21 20 20 20 20 19 19 20 21 21 23 24 25 27 28 29 30 31 31 30 30 29 28 26 25 24
33 33 32 31 29 29 28 28 27 26 25 24 24 23 22 22 22 22 22 21 21 21 21 21 21 21 22 23 24 25 27 28 30 31 31 32 31 31 30 29 28 27 26 25
36 36 37 34 32 32 31 30 30 28 27 26 26 25 24 24 23 23 23 23 23 23 23 23 23 23 24 25 26 27 28 30 31 32 33 33 33 32 30 29 28 27 27 26
Wind_Direction
216 221 227 234 242 250 261 272 281 287 297 304 308 319 329 333 343 358 12 19 17 13 12 13 14 14 15 15 15 15 14 13 12 12 10 8 6 2 353 340 319 301 284 270
214 218 222 230 237 246 256 270 281 288 298 303 308 318 328 328 344 7 24 28 24 19 18 19 19 20 20 21 21 21 21 21 21 21 20 19 17 13 9 3 352 334 311 287
213 217 223 228 234 243 257 275 285 288 292 298 301 309 316 321 353 27 35 33 29 25 24 25 25 25 25 25 24 24 25 25 25 25 24 24 22 20 19 16 10 360 343 324
209 214 221 226 231 243 258 273 285 289 291 291 290 296 299 296 53 49 44 38 33 31 30 30 29 29 28 26 25 25 25 25 25 24 24 24 24 23 22 19 15 10 1 350
205 210 217 225 233 247 261 271 278 283 282 276 277 276 247 198 127 74 51 42 37 34 33 32 31 29 27 25 24 24 23 23 24 24 23 23 22 22 21 20 19 15 8 1
202 207 215 224 236 249 259 266 272 275 268 261 261 237 190 169 141 99 68 49 40 34 32 31 29 26 24 23 22 21 21 22 22 22 21 21 21 20 19 19 17 15 12 7
201 205 211 223 234 247 258 262 265 265 254 250 247 209 170 160 146 117 86 58 43 34 29 27 24 22 20 19 18 18 18 18 18 19 18 18 17 17 16 15 15 14 12 9
198 201 212 225 238 248 255 257 259 257 256 251 236 200 177 167 150 127 99 64 44 35 25 20 19 16 14 14 14 14 13 12 13 13 13 13 13 13 14 13 11 11 10 9
198 201 213 225 237 246 250 250 252 251 252 247 228 199 181 178 164 143 120 74 39 27 17 14 11 10 9 9 9 8 8 7 7 8 8 8 8 9 10 9 9 8 7 6
203 206 217 230 239 243 245 245 242 241 246 244 227 205 193 190 179 168 162 156 27 11 12 9 7 6 5 3 3 2 1 1 1 2 2 3 3 4 6 6 6 6 5 4
223 224 225 232 235 236 237 239 238 240 240 238 228 202 194 188 188 188 190 192 199 347 360 0 359 359 358 357 356 355 355 355 356 356 357 358 359 0 1 2 3 4 3 2
239 235 237 241 245 243 241 237 233 235 238 236 227 206 202 193 192 191 190 192 195 271 337 346 348 349 349 350 350 350 350 350 350 351 353 354 355 357 359 359 0 1 1 1
247 247 245 245 249 246 239 233 229 231 234 233 227 212 207 198 195 192 190 198 217 261 308 327 335 338 340 342 343 345 346 347 347 348 350 352 354 355 356 357 358 359 360 0
247 250 251 251 253 251 243 234 230 229 229 229 225 215 209 208 208 206 207 219 240 267 296 313 323 329 333 336 338 340 342 344 345 347 348 350 352 353 353 353 354 356 358 359
246 248 250 250 250 249 247 241 236 233 228 226 221 211 206 212 216 217 220 230 250 272 290 304 315 322 327 331 334 338 340 342 344 346 348 349 349 349 349 350 351 353 354 356
244 245 245 247 250 247 240 235 235 233 230 226 220 206 207 211 215 219 225 236 255 273 287 300 309 316 322 328 332 336 339 341 344 345 346 346 347 347 347 348 349 350 351 353
242 242 242 244 247 247 236 234 234 231 230 225 217 212 212 215 219 225 236 249 263 275 286 296 305 312 318 324 329 333 336 339 341 342 342 343 343 343 343 344 346 347 348 348
241 242 243 244 245 245 235 236 234 230 229 227 223 222 224 226 231 239 248 257 266 274 283 292 300 306 313 319 325 330 333 336 337 338 339 340 340 339 338 339 340 341 342 342
242 242 242 243 245 240 236 241 241 237 233 234 232 231 234 239 244 249 253 259 267 274 282 288 295 301 307 314 320 325 329 332 334 335 336 336 336 335 334 334 334 335 335 336
245 244 244 244 245 239 233 239 240 239 235 237 239 239 241 245 250 253 257 264 270 275 281 286 291 297 304 310 316 320 324 328 331 333 334 334 333 332 330 329 329 329 329 329
247 246 245 246 246 241 237 239 241 242 238 239 243 245 246 248 252 257 262 266 269 274 279 283 288 293 300 306 312 317 322 325 328 330 331 331 330 330 328 326 324 324 324 324
249 247 246 247 247 244 242 240 241 243 243 245 246 248 250 251 254 258 262 265 268 272 276 281 285 291 297 303 309 314 318 322 324 326 327 328 327 327 326 324 322 321 320 320
251 249 247 247 247 244 244 244 243 244 245 246 248 249 251 252 255 258 262 265 268 272 276 280 284 289 294 300 305 310 314 318 320 322 323 324 324 324 323 321 320 318 317 316
251 250 249 248 246 245 246 246 247 246 246 246 248 250 251 253 256 260 262 265 268 272 275 279 282 286 291 296 301 306 310 314 316 318 320 321 321 321 320 319 318 316 315 314
247 250 251 251 249 248 246 247 247 248 248 249 249 251 252 254 257 261 263 266 268 272 275 278 281 284 288 293 298 303 306 310 313 315 317 318 318 318 317 316 315 314 313 312
245 248 250 251 251 250 247 247 248 249 250 251 252 253 254 256 258 261 264 266 268 271 273 276 279 282 286 290 295 300 304 308 311 313 315 315 315 314 313 312 311 310 310 309
Height
5855 5860 5863 5866 5868 5869 5870 5871 5871 5871 5871 5870 5868 5867 5866 5864 5862 5861 5859 5858 5856 5854 5851 5848 5845 5841 5837 5833 5830 5825 5821 5816 5811 5807 5803 5799 5796 5793 5790 5788 5787 5786 5785 5786
5853 5857 5861 5862 5865 5866 5868 5868 5868 5868 5867 5866 5865 5864 5863 5862 5860 5859 5858 5857 5855 5854 5851 5848 5845 5842 5838 5834 5830 5826 5822 5817 5812 5808 5804 5800 5796 5793 5790 5788 5786 5785 5784 5783
5851 5855 5857 5860 5862 5863 5865 5866 5865 5864 5864 5863 5863 5863 5862 5861 5859 5858 5857 5856 5855 5853 5851 5849 5846 5842 5839 5835 5831 5827 5823 5818 5814 5809 5805 5801 5798 5794 5791 5788 5786 5784 5782 5781
5847 5851 5855 5857 5859 5861 5862 5863 5862 5861 5861 5861 5861 5861 5860 5859 5858 5857 5856 5856 5855 5853 5851 5849 5846 5843 5840 5836 5832 5828 5824 5820 5815 5811 5807 5803 5799 5795 5792 5789 5786 5784 5782 5780
5846 5850 5853 5855 5857 5858 5859 5860 5860 5859 5859 5859 5859 5859 5859 5858 5857 5857 5856 5856 5855 5853 5851 5849 5846 5844 5841 5837 5834 5830 5826 5821 5817 5813 5809 5804 5800 5797 5793 5790 5787 5784 5782 5780
5845 5848 5851 5853 5855 5856 5857 5857 5857 5857 5857 5857 5857 5857 5857 5857 5856 5856 5856 5855 5854 5853 5851 5849 5847 5844 5841 5838 5835 5831 5827 5823 5819 5814 5810 5806 5802 5798 5795 5791 5788 5785 5782 5779
5843 5846 5849 5851 5852 5853 5854 5855 5855 5855 5854 5855 5855 5855 5856 5855 5855 5855 5855 5855 5854 5853 5851 5850 5847 5845 5842 5839 5836 5832 5828 5824 5820 5816 5812 5808 5804 5800 5796 5792 5789 5785 5782 5779
5841 5845 5847 5848 5849 5850 5851 5852 5853 5853 5853 5853 5853 5852 5854 5853 5854 5854 5854 5853 5853 5852 5851 5850 5847 5845 5842 5839 5836 5832 5829 5825 5821 5817 5813 5809 5805 5801 5797 5793 5790 5786 5783 5779
5840 5844 5845 5846 5846 5847 5848 5848 5850 5850 5850 5850 5850 5851 5851 5851 5852 5852 5852 5852 5852 5852 5851 5849 5847 5845 5842 5839 5836 5833 5829 5825 5822 5818 5814 5810 5806 5802 5798 5794 5790 5786 5783 5779
5839 5842 5843 5844 5844 5845 5845 5846 5846 5847 5847 5847 5848 5848 5849 5849 5850 5851 5851 5851 5851 5851 5850 5849 5847 5845 5842 5839 5836 5833 5829 5826 5822 5818 5814 5810 5806 5802 5798 5795 5791 5787 5783 5779
5838 5840 5842 5842 5842 5842 5843 5843 5843 5844 5845 5845 5846 5850 5849 5849 5849 5850 5850 5850 5850 5850 5849 5848 5846 5844 5842 5839 5836 5833 5829 5826 5822 5818 5814 5810 5806 5802 5798 5795 5791 5787 5783 5779
5836 5838 5839 5840 5840 5840 5840 5840 5841 5842 5843 5843 5844 5849 5847 5848 5848 5848 5849 5849 5849 5849 5848 5847 5845 5843 5841 5838 5835 5832 5829 5825 5821 5818 5814 5810 5806 5802 5798 5794 5791 5787 5783 5779
5834 5835 5836 5837 5840 5839 5838 5838 5839 5839 5840 5840 5842 5847 5845 5846 5846 5847 5847 5847 5847 5847 5846 5845 5844 5842 5840 5837 5834 5831 5828 5824 5820 5817 5813 5809 5805 5802 5798 5794 5790 5786 5782 5778
5832 5832 5834 5835 5835 5835 5836 5836 5836 5837 5837 5838 5840 5842 5843 5844 5844 5845 5845 5846 5845 5845 5845 5844 5842 5840 5838 5836 5833 5830 5826 5823 5819 5816 5812 5808 5804 5801 5797 5793 5790 5786 5782 5778
5829 5829 5830 5831 5831 5832 5833 5833 5834 5834 5835 5836 5838 5839 5841 5842 5842 5843 5843 5844 5843 5843 5842 5842 5840 5838 5836 5834 5831 5828 5825 5821 5818 5814 5811 5807 5803 5800 5796 5792 5788 5785 5781 5777
5825 5826 5827 5827 5828 5828 5829 5831 5831 5832 5833 5834 5835 5837 5838 5839 5840 5841 5841 5841 5841 5841 5840 5839 5838 5836 5834 5832 5829 5826 5823 5819 5816 5812 5809 5805 5802 5798 5795 5791 5787 5783 5779 5776
5822 5823 5824 5825 5824 5825 5827 5828 5829 5830 5830 5831 5833 5835 5835 5837 5837 5838 5838 5839 5839 5838 5838 5837 5835 5833 5831 5829 5826 5824 5821 5817 5814 5810 5807 5803 5800 5796 5793 5789 5785 5782 5778 5774
5818 5819 5820 5821 5822 5822 5827 5825 5826 5827 5828 5829 5830 5831 5833 5833 5834 5835 5835 5836 5836 5835 5835 5834 5832 5831 5829 5826 5824 5821 5818 5815 5812 5808 5805 5801 5797 5794 5790 5787 5783 5779 5776 5772
5814 5815 5816 5817 5817 5819 5822 5823 5823 5824 5826 5826 5827 5828 5829 5830 5831 5832 5832 5832 5832 5831 5831 5830 5829 5827 5825 5823 5821 5818 5815 5812 5809 5806 5802 5798 5795 5791 5788 5784 5780 5777 5773 5770
5810 5810 5812 5812 5812 5815 5820 5819 5819 5821 5822 5823 5823 5824 5825 5826 5827 5828 5827 5828 5827 5827 5826 5826 5824 5823 5821 5819 5817 5815 5812 5809 5806 5802 5799 5795 5791 5788 5784 5780 5777 5773 5770 5767
5804 5805 5807 5807 5807 5811 5814 5814 5815 5818 5819 5818 5819 5820 5821 5822 5823 5823 5823 5823 5823 5822 5822 5821 5820 5818 5817 5815 5813 5810 5807 5805 5801 5798 5794 5791 5787 5784 5780 5776 5773 5769 5766 5763
5799 5800 5801 5801 5802 5808 5808 5808 5810 5812 5812 5813 5814 5815 5816 5817 5817 5817 5818 5818 5818 5817 5817 5816 5815 5814 5812 5810 5808 5806 5803 5800 5797 5794 5790 5787 5783 5779 5775 5771 5768 5764 5761 5758
5793 5794 5794 5796 5799 5800 5801 5802 5803 5805 5806 5807 5808 5809 5810 5811 5811 5811 5812 5812 5812 5812 5811 5810 5809 5808 5806 5805 5803 5801 5798 5795 5792 5789 5785 5782 5778 5774 5770 5766 5762 5759 5756 5753
5785 5786 5786 5788 5791 5792 5793 5794 5796 5798 5799 5800 5802 5803 5804 5804 5805 5805 5805 5806 5805 5805 5805 5804 5803 5802 5801 5799 5797 5795 5793 5790 5787 5784 5780 5776 5772 5768 5764 5760 5757 5754 5750 5748
5776 5777 5777 5779 5782 5784 5785 5787 5788 5789 5791 5793 5794 5795 5796 5797 5798 5798 5798 5798 5798 5798 5798 5798 5797 5796 5795 5793 5792 5790 5787 5784 5781 5778 5774 5770 5767 5763 5759 5755 5751 5748 5745 5742
5768 5768 5768 5770 5773 5773 5776 5777 5779 5781 5783 5784 5785 5787 5788 5789 5790 5790 5790 5791 5791 5791 5791 5791 5790 5789 5788 5787 5785 5783 5781 5778 5775 5771 5767 5764 5760 5756 5753 5749 5746 5742 5740 5737